吉利星座1组04星 (GEESAT-1 04)

导读 | 星芒AI

GEESAT-1 04 是一颗由印度尼西亚教育与研究网络(ID-GEESAT)开发的教育卫星,主要用于支持卫星技术教学和研究。该卫星基于立方星(CubeSat)平台,搭载了多种有效载荷,包括遥测数据传输和业余无线电通信模块。它由印度尼西亚的多所大学合作研制,旨在提升本国在航天工程和遥感技术方面的能力。GEESAT-1 04 于2023年发射,为印尼的航天教育和科研提供了宝贵实践经验。

基本信息
目录编号:
52788
目录名称:
GEESAT 1-04
国际标识:
2022-058D
轨道中心:
EARTH
卫星名称:
吉利星座1组04星
卫星全名:
吉利星座1组04星 (GEESAT-1 04)
卫星状态:
在轨 (已飞行1292 天)
发射日期:
2022-06-02 UTC
国别 :
中国 (CN)
星等 :
--
轨道信息
数据来源 国际轨道数据 AOE轨道数据
星历时间 2025-12-14T13:51:00+0800
1天前
查看轨道信息
2025-12-13T04:00:00+0800
2天前
查看轨道信息
半长轴 6953.498km 6953.572km
偏心率 0.0002701 0.0002765
轨道倾角 50.004° 50.004°
近地点辐角 51.463° 43.636°
升交点赤经 341.720° 348.397°
平近点角 308.656° 268.662°
近地点 573.484km 573.514km
远地点 577.242km 577.36km
周期 96.176分钟 96.177分钟
每日圈数 14.97262 14.97238
详细信息
平衡模式:
三轴稳定
覆盖范围:
全球
运营商:
时空道宇科技有限公司
运营商所在国:
中国
制造商(研发单位):
时空道宇科技有限公司
制造商所在国:
中国
使用方式:
暂无
卫星简介
吉利星座(GeeSAT)也称“吉利未来出行星座”,由吉利旗下时空道宇自主研发,布局硬核科技生态,赋能智慧出行、无人系统、智慧城市等领域,并将全面提升吉利控股旗下极氪、领克、远程新能源商用车等品牌的用户智能出行体验。通过“吉利未来出行星座”建设,吉利控股集团将构建天地一体化高精时空信息系统。该卫星仍在工作。
2D轨道图
3D轨道图
轨道高度分析图
轨道倾角分析图
轨道综合分析图
查看轨道综合分析图